Regional Weather Roundup
Issued by NWS Bismarck, ND

Home | Current Version | Previous Version | Text Only | Print | Product List | Glossary On
Versions: 1 2 3 4 5 6 7 8 9 10 11 12 13 14 15 16 17 18 19 20 21 22 23 24 25 26 27 28 29 30 31 32 33 34 35 36 37 38 39 40 41 42 43 44 45 46 47 48 49 50
000
ASUS43 KBIS 281010
RWRBIS

NWR BROADCAST TEXT
NATIONAL WEATHER SERVICE BISMARCK ND
500 AM CDT THU MAY 28 2015

NOTE: "FAIR" INDICATES FEW OR NO CLOUDS BELOW 12,000 FEET WITH NO
SIGNIFICANT WEATHER AND/OR OBSTRUCTIONS TO VISIBILITY.


CITY           SKY/WX    TMP DP  RH WIND       PRES   REMARKS
WILLISTON      CLOUDY    56  54  93 CALM      29.88S
MINOT          CLOUDY    58  56  93 E7        29.88F
MINOT AFB      LGT RAIN  57  57 100 E9        29.87F FOG
BISMARCK       PTCLDY    57  55  93 SE5       29.89F
DICKINSON      MOCLDY    50  48  93 SW3       29.88S FOG
GARRISON         N/A     59  56  89 SE5       29.88S
HETTINGER ARPT FOG       48  46  93 CALM      29.91S VSB 1/4
JAMESTOWN      CLOUDY    60  56  86 SE3       29.91F
BEACH          FAIR      48  48 100 S5        29.91S
CARRINGTON     CLOUDY    59  59 100 SE10      29.92F
CROSBY         PTSUNNY   55  55 100 E7        29.89S FOG
HARVEY         CLOUDY    57  57 100 SE7       29.90F
HAZEN          FOG       50  50 100 CALM      29.89F VSB 1/2
LINTON         FAIR      57  57 100 SE9       29.89F
MANDAN         PTSUNNY   57  57 100 S7        29.90S
OAKES            N/A     59  59 100 E7        29.92F
STANLEY        CLOUDY    55  55 100 SE7       29.89S FOG
WATFORD CITY   CLOUDY    54  54 100 W3        29.87S
$$

CITY           SKY/WX    TMP DP  RH WIND       PRES   REMARKS
GRAND FORKS    LGT RAIN  56  54  93 W5        29.97R
GRAND FORKS AF LGT RAIN  56  54  92 E2        29.97R
DEVILS LAKE    CLOUDY    59  54  82 E8        29.92F
FARGO          LGT RAIN  63  58  83 NW7       29.94F
CANDO          CLOUDY    54  50  87 E8        29.94F
CAVALIER       LGT RAIN  54  48  82 N5        29.96F
GRAFTON        PTSUNNY   55  54  94 CALM      29.97R
LANGDON        CLOUDY    54  50  87 E10       29.95F
ROLLA          RAIN      54  54 100 SE12      29.95F
WALHALLA       RAIN      54  54 100 MISG      29.97S
$$

CITY           SKY/WX    TMP DP  RH WIND       PRES   REMARKS
ABERDEEN       LGT RAIN  62  58  86 E6        29.93F
MOBRIDGE       CLEAR     60  58  92 SE7       29.86F
BUFFALO          N/A     53  51  93 W7        29.87R
RAPID CITY     LGT RAIN  55  53  93 NE3       29.92S
GLASGOW        FOG       50  49  96 W8        29.88R VSB 1/4
SIDNEY         CLOUDY    48  46  93 CALM      29.89R VSB<1/4
WOLF POINT     PTCLDY    51  49  92 E5        29.88R
GLENDIVE       CLEAR     48  46  93 NW6       29.90S
MILES CITY     FOG       51  51 100 SW6       29.91F VSB 1
BAKER          MOCLDY    51  50  96 W6        29.93R
$$

CITY           SKY/WX    TMP DP  RH WIND       PRES   REMARKS
BILLINGS       MOCLDY    49  46  90 SW8       29.97F
GREAT FALLS    CLOUDY    50  47  89 SW7       29.99S
REGINA         MOCLDY    55  50  82 SE5       29.92S
ESTEVAN        MOCLDY    55  54  94 E8        29.89S
$$




USA.gov is the U.S. government's official web portal to all federal, state and local government web resources and services.